,,Stat5,,Stat1,,Stat2,,Stat3,,Stat4,,Wind1,,Wind1,
time,status,PA1M_AVG,status,PR1M_SUM,status,RH1M_AVG,status,SR1M_AVG,status,TA1M_AVG,status,W1dAve1m,status,W1sAve1m,
2001-12-29, 00:00:01,VALID,920.985,VALID,0,VALID,96.174,VALID,-0.0169808,VALID,18.8879,VALID,9,VALID,0.776643,
2001-12-29, 00:01:00,VALID,920.99,VALID,0,VALID,95.9375,VALID,0,VALID,18.8678,VALID,6,VALID,0.723661,
2001-12-29, 00:02:00,VALID,920.991,VALID,0,VALID,95.9108,VALID,-0.0169808,VALID,18.908,VALID,4,VALID,0.834517,
2001-12-29, 00:03:00,VALID,920.99,VALID,0,VALID,95.8675,VALID,0,VALID,18.9073,VALID,11,VALID,0.439611,
2001-12-29, 00:04:00,VALID,920.982,VALID,0,VALID,95.9629,VALID,0,VALID,18.9267,VALID,11,VALID,0.00542535,
2001-12-29, 00:05:00,VALID,920.97,VALID,0,VALID,96.0316,VALID,-0.0339617,VALID,18.9237,VALID,11,VALID,0,
2001-12-29, 00:06:00,VALID,920.965,VALID,0,VALID,96.0672,VALID,-0.0339617,VALID,18.9209,VALID,11,VALID,0.00971284,
2001-12-29, 00:07:00,VALID,920.957,VALID,0,VALID,96.1524,VALID,-0.101885,VALID,18.9117,VALID,12,VALID,0.161161,
2001-12-29, 00:08:00,VALID,920.957,VALID,0,VALID,96.2198,VALID,-0.101885,VALID,18.9117,VALID,12,VALID,0,
2001-12-29, 00:09:00,VALID,920.951,VALID,0,VALID,96.2198,VALID,-0.101885,VALID,18.9085,VALID,13,VALID,0.304054,
2001-12-29, 00:10:01,VALID,920.955,VALID,0,VALID,95.9883,VALID,-0.101885,VALID,18.8958,VALID,14,VALID,0.270765,
2001-12-29, 00:11:00,VALID,920.962,VALID,0,VALID,96.0328,VALID,-0.118866,VALID,18.8993,VALID,14,VALID,0.0713682,
2001-12-29, 00:12:00,VALID,920.967,VALID,0,VALID,96.1371,VALID,-0.101885,VALID,18.909,VALID,14,VALID,0,
2001-12-29, 00:13:01,VALID,920.953,VALID,0,VALID,96.1753,VALID,-0.152827,VALID,18.9053,VALID,14,VALID,0,
2001-12-29, 00:14:00,VALID,920.942,VALID,0,VALID,96.1536,VALID,-0.101885,VALID,18.9023,VALID,14,VALID,0.228456,
2001-12-29, 00:15:00,VALID,920.934,VALID,0,VALID,96.0227,VALID,-0.118866,VALID,18.8926,VALID,16,VALID,0.120864,
2001-12-29, 00:16:00,VALID,920.911,VALID,0,VALID,95.9375,VALID,-0.101885,VALID,18.8893,VALID,49,VALID,0.354307,
2001-12-29, 00:17:00,VALID,920.903,VALID,0,VALID,95.912,VALID,-0.118866,VALID,18.8827,VALID,51,VALID,0.254434,
2001-12-29, 00:18:00,VALID,920.901,VALID,0,VALID,95.9082,VALID,-0.101885,VALID,18.8988,VALID,51,VALID,0.13788,
2001-12-29, 00:19:00,VALID,920.903,VALID,0,VALID,95.8179,VALID,-0.101885,VALID,18.9083,VALID,51,VALID,0.461372,
2001-12-29, 00:20:00,VALID,920.905,VALID,0,VALID,95.7493,VALID,-0.101885,VALID,18.9085,VALID,65,VALID,0.629607,
2001-12-29, 00:21:00,VALID,920.912,VALID,0,VALID,95.5776,VALID,-0.0679233,VALID,18.9147,VALID,70,VALID,0.466216,
2001-12-29, 00:22:00,VALID,920.915,VALID,0,VALID,95.4238,VALID,-0.0339617,VALID,18.9301,VALID,73,VALID,0.465402,
2001-12-29, 00:23:01,VALID,920.913,VALID,0,VALID,95.2635,VALID,-0.0339617,VALID,18.9391,VALID,81,VALID,0.37315,
2001-12-29, 00:24:00,VALID,920.918,VALID,0,VALID,95.1974,VALID,0,VALID,18.962,VALID,100,VALID,0.298775,
2001-12-29, 00:25:01,VALID,920.905,VALID,0,VALID,95.1389,VALID,0,VALID,18.9749,VALID,84,VALID,0.422286,
2001-12-29, 00:26:00,VALID,920.905,VALID,0,VALID,95.1173,VALID,0,VALID,18.9843,VALID,75,VALID,0.448902,
2001-12-29, 00:27:00,VALID,920.876,VALID,0,VALID,95.1745,VALID,-0.0169808,VALID,19.001,VALID,75,VALID,0.475223,
2001-12-29, 00:28:01,VALID,920.854,VALID,0,VALID,95.1656,VALID,-0.0339617,VALID,18.994,VALID,75,VALID,0.46254,
2001-12-29, 00:29:00,VALID,920.837,VALID,0,VALID,95.2534,VALID,-0.0339617,VALID,19.0044,VALID,75,VALID,0.424716,
2001-12-29, 00:30:00,VALID,920.814,VALID,0,VALID,95.3881,VALID,-0.0169808,VALID,18.9975,VALID,75,VALID,0.508042,
2001-12-29, 00:31:00,VALID,920.812,VALID,0,VALID,95.5013,VALID,-0.0339617,VALID,19.0012,VALID,75,VALID,0.34924,
2001-12-29, 00:32:00,VALID,920.81,VALID,0,VALID,95.6348,VALID,0,VALID,18.9878,VALID,75,VALID,0.234586,
2001-12-29, 00:33:00,VALID,920.81,VALID,0,VALID,95.7238,VALID,-0.0169808,VALID,18.9913,VALID,43,VALID,0.363387,
2001-12-29, 00:34:00,VALID,920.81,VALID,0,VALID,95.7429,VALID,0,VALID,18.9781,VALID,41,VALID,0.0078125,
2001-12-29, 00:35:00,VALID,920.803,VALID,0,VALID,95.8764,VALID,0,VALID,18.9518,VALID,41,VALID,0,
2001-12-29, 00:36:00,VALID,920.791,VALID,0,VALID,95.8981,VALID,-0.0339617,VALID,18.9525,VALID,43,VALID,0.185177,
2001-12-29, 00:37:00,VALID,920.777,VALID,0,VALID,95.9705,VALID,-0.0679233,VALID,18.92,VALID,46,VALID,0.270536,
2001-12-29, 00:38:01,VALID,920.783,VALID,0,VALID,96.0507,VALID,-0.0849042,VALID,18.9205,VALID,46,VALID,0.289885,
2001-12-29, 00:39:00,VALID,920.782,VALID,0,VALID,96.2045,VALID,-0.0679233,VALID,18.8944,VALID,57,VALID,0.182432,
2001-12-29, 00:40:01,VALID,920.781,VALID,0,VALID,96.3533,VALID,-0.0679233,VALID,18.8849,VALID,66,VALID,0.122738,
2001-12-29, 00:41:00,VALID,920.774,VALID,0,VALID,96.4474,VALID,-0.0679233,VALID,18.8715,VALID,73,VALID,0.188556,
2001-12-29, 00:42:00,VALID,920.768,VALID,0,VALID,96.3177,VALID,-0.0509425,VALID,18.8658,VALID,69,VALID,0.559598,
2001-12-29, 00:43:01,VALID,920.744,VALID,0,VALID,96.1753,VALID,-0.0169808,VALID,18.8621,VALID,61,VALID,0.686899,
2001-12-29, 00:44:00,VALID,920.733,VALID,0,VALID,95.9934,VALID,-0.0509425,VALID,18.8912,VALID,57,VALID,0.587595,
2001-12-29, 00:45:00,VALID,920.722,VALID,0,VALID,95.8612,VALID,-0.101885,VALID,18.9142,VALID,50,VALID,0.565947,
2001-12-29, 00:46:00,VALID,920.699,VALID,0,VALID,95.7823,VALID,-0.0169808,VALID,18.9038,VALID,34,VALID,0.779772,
2001-12-29, 00:47:00,VALID,920.676,VALID,0,VALID,95.7315,VALID,-0.0339617,VALID,18.9205,VALID,34,VALID,0.670819,
2001-12-29, 00:48:00,VALID,920.658,VALID,0,VALID,95.701,VALID,0,VALID,18.9071,VALID,36,VALID,0.580659,
2001-12-29, 00:49:00,VALID,920.638,VALID,0,VALID,95.556,VALID,-0.0849042,VALID,18.9264,VALID,46,VALID,0.604818,
2001-12-29, 00:50:00,VALID,920.616,VALID,0,VALID,95.4848,VALID,-0.0849042,VALID,18.9595,VALID,45,VALID,0.392428,
2001-12-29, 00:51:00,VALID,920.612,VALID,0,VALID,95.5687,VALID,-0.0679233,VALID,18.9657,VALID,45,VALID,0.222551,
2001-12-29, 00:52:00,VALID,920.588,VALID,0,VALID,95.6959,VALID,-0.0339617,VALID,18.9528,VALID,45,VALID,0.122321,
2001-12-29, 00:53:01,VALID,920.577,VALID,0,VALID,95.7531,VALID,-0.0509425,VALID,18.9401,VALID,45,VALID,0,
2001-12-29, 00:54:00,VALID,920.559,VALID,0,VALID,95.8866,VALID,-0.0509425,VALID,18.9112,VALID,45,VALID,0.269215,
2001-12-29, 00:55:01,VALID,920.534,VALID,0,VALID,96.0392,VALID,-0.0849042,VALID,18.8752,VALID,45,VALID,0.375617,
2001-12-29, 00:56:00,VALID,920.51,VALID,0,VALID,96.2299,VALID,-0.0509425,VALID,18.8556,VALID,45,VALID,0.0701014,
2001-12-29, 00:57:00,VALID,920.494,VALID,0,VALID,96.3749,VALID,-0.0169808,VALID,18.8367,VALID,44,VALID,0.144866,
2001-12-29, 00:58:01,VALID,920.457,VALID,0,VALID,96.5873,VALID,-0.0339617,VALID,18.8106,VALID,44,VALID,0.321314,
2001-12-29, 00:59:00,VALID,920.437,VALID,0,VALID,96.7729,VALID,-0.0339617,VALID,18.8012,VALID,39,VALID,0.441761,
2001-12-29, 01:00:00,VALID,920.425,VALID,0,VALID,96.7805,VALID,-0.0509425,VALID,18.7813,VALID,23,VALID,0.363741,
2001-12-29, 01:01:00,VALID,920.392,VALID,0,VALID,96.7717,VALID,-0.0169808,VALID,18.785,VALID,19,VALID,0.342061,
2001-12-29, 01:02:00,VALID,920.38,VALID,0,VALID,96.8162,VALID,-0.0339617,VALID,18.7751,VALID,18,VALID,0.275971,
2001-12-29, 01:03:00,VALID,920.379,VALID,0,VALID,96.853,VALID,-0.0509425,VALID,18.7555,VALID,15,VALID,0.469595,
2001-12-29, 01:04:00,VALID,920.364,VALID,0,VALID,96.9192,VALID,-0.0339617,VALID,18.7267,VALID,15,VALID,0.388672,
2001-12-29, 01:05:00,VALID,920.347,VALID,0,VALID,96.9878,VALID,-0.0339617,VALID,18.7137,VALID,15,VALID,0.503606,
2001-12-29, 01:06:00,VALID,920.327,VALID,0,VALID,96.9827,VALID,-0.0339617,VALID,18.7163,VALID,20,VALID,0.489231,
2001-12-29, 01:07:00,VALID,920.309,VALID,0,VALID,96.8708,VALID,0.0679233,VALID,18.7349,VALID,17,VALID,0.317634,
2001-12-29, 01:08:01,VALID,920.292,VALID,0,VALID,96.7004,VALID,0.0509425,VALID,18.7546,VALID,13,VALID,0.430304,
2001-12-29, 01:09:00,VALID,920.274,VALID,0,VALID,96.6114,VALID,0.0339617,VALID,18.7476,VALID,359,VALID,0.462838,
2001-12-29, 01:10:01,VALID,920.263,VALID,0,VALID,96.5415,VALID,0.0509425,VALID,18.7702,VALID,356,VALID,0.365543,
2001-12-29, 01:11:00,VALID,920.238,VALID,0,VALID,96.4868,VALID,0.0849042,VALID,18.7638,VALID,355,VALID,0.150338,
2001-12-29, 01:12:00,VALID,920.216,VALID,0,VALID,96.4258,VALID,0.0679233,VALID,18.7543,VALID,11,VALID,0.50067,
2001-12-29, 01:13:01,VALID,920.203,VALID,0,VALID,96.3965,VALID,0.0169808,VALID,18.7349,VALID,14,VALID,0.569912,
2001-12-29, 01:14:00,VALID,920.201,VALID,0,VALID,96.408,VALID,0.0169808,VALID,18.7119,VALID,23,VALID,0.682055,
2001-12-29, 01:15:00,VALID,920.2,VALID,0,VALID,96.4067,VALID,0.101885,VALID,18.7218,VALID,22,VALID,0.789063,
2001-12-29, 01:16:00,VALID,920.199,VALID,0,VALID,96.3482,VALID,0.0679233,VALID,18.7248,VALID,26,VALID,0.712838,
2001-12-29, 01:17:00,VALID,920.208,VALID,0,VALID,96.3075,VALID,0.0509425,VALID,18.7287,VALID,22,VALID,0.562078,
2001-12-29, 01:18:00,VALID,920.204,VALID,0,VALID,96.3698,VALID,0.0169808,VALID,18.7476,VALID,23,VALID,0.579181,
2001-12-29, 01:19:01,VALID,920.186,VALID,0,VALID,96.1943,VALID,0.0169808,VALID,18.767,VALID,23,VALID,0.549045,
2001-12-29, 01:20:01,VALID,920.168,VALID,0,VALID,96.1219,VALID,0.0509425,VALID,18.7737,VALID,24,VALID,0.494191,
2001-12-29, 01:21:01,VALID,920.144,VALID,0,VALID,96.0964,VALID,0.0339617,VALID,18.7573,VALID,24,VALID,0.445524,
2001-12-29, 01:22:00,VALID,920.121,VALID,0,VALID,96.0774,VALID,-0.0339617,VALID,18.7456,VALID,19,VALID,0.65692,
2001-12-29, 01:23:01,VALID,920.09,VALID,0,VALID,96.0583,VALID,-0.0509425,VALID,18.7232,VALID,14,VALID,0.812706,
2001-12-29, 01:24:00,VALID,920.091,VALID,0,VALID,96.2083,VALID,-0.0169808,VALID,18.6974,VALID,14,VALID,0.65266,
2001-12-29, 01:25:01,VALID,920.076,VALID,0,VALID,96.221,VALID,0,VALID,18.6844,VALID,15,VALID,0.560033,
2001-12-29, 01:26:01,VALID,920.066,VALID,0,VALID,96.2299,VALID,-0.0679233,VALID,18.6685,VALID,15,VALID,0.569257,
2001-12-29, 01:27:00,VALID,920.054,VALID,0,VALID,96.2859,VALID,-0.0339617,VALID,18.6425,VALID,8,VALID,0.665402,
2001-12-29, 01:28:01,VALID,920.038,VALID,0,VALID,96.3673,VALID,-0.0169808,VALID,18.6328,VALID,8,VALID,0.859976,
2001-12-29, 01:29:00,VALID,920.018,VALID,0,VALID,96.4741,VALID,-0.0169808,VALID,18.6231,VALID,14,VALID,1.05185,
2001-12-29, 01:30:00,VALID,920.002,VALID,0,VALID,96.4601,VALID,-0.0339617,VALID,18.6325,VALID,22,VALID,1.04274,
2001-12-29, 01:31:00,VALID,919.982,VALID,0,VALID,96.469,VALID,-0.0509425,VALID,18.6752,VALID,24,VALID,0.975084,
2001-12-29, 01:32:01,VALID,919.972,VALID,0,VALID,96.2821,VALID,-0.0509425,VALID,18.6715,VALID,26,VALID,0.72973,
2001-12-29, 01:33:01,VALID,919.965,VALID,0,VALID,96.2745,VALID,-0.0339617,VALID,18.6941,VALID,22,VALID,0.505642,
2001-12-29, 01:34:01,VALID,919.957,VALID,0,VALID,96.2338,VALID,-0.0169808,VALID,18.6941,VALID,22,VALID,0.324219,
2001-12-29, 01:35:01,VALID,919.949,VALID,0,VALID,96.1384,VALID,-0.0509425,VALID,18.6981,VALID,22,VALID,0.153245,
2001-12-29, 01:36:01,VALID,919.947,VALID,0,VALID,96.071,VALID,-0.0169808,VALID,18.6681,VALID,22,VALID,0,
2001-12-29, 01:37:00,VALID,919.941,VALID,0,VALID,96.132,VALID,0,VALID,18.6521,VALID,22,VALID,0,
2001-12-29, 01:38:01,VALID,919.918,VALID,0,VALID,96.1358,VALID,0,VALID,18.6261,VALID,22,VALID,0,
2001-12-29, 01:39:00,VALID,919.908,VALID,0,VALID,96.1791,VALID,0,VALID,18.6002,VALID,10,VALID,0.130068,
2001-12-29, 01:40:01,VALID,919.899,VALID,0,VALID,96.3698,VALID,0,VALID,18.591,VALID,347,VALID,0.291735,
2001-12-29, 01:41:01,VALID,919.882,VALID,0,VALID,96.4588,VALID,-0.0169808,VALID,18.5811,VALID,352,VALID,0.511191,
2001-12-29, 01:42:01,VALID,919.865,VALID,0,VALID,96.5262,VALID,-0.0169808,VALID,18.5841,VALID,357,VALID,0.588616,
2001-12-29, 01:43:01,VALID,919.862,VALID,0,VALID,96.5428,VALID,0,VALID,18.5779,VALID,359,VALID,0.315705,
2001-12-29, 01:44:01,VALID,919.855,VALID,0,VALID,96.4512,VALID,-0.0169808,VALID,18.5677,VALID,359,VALID,0.159091,
2001-12-29, 01:45:01,VALID,919.852,VALID,0,VALID,96.5199,VALID,0,VALID,18.5716,VALID,354,VALID,0.363051,
2001-12-29, 01:46:01,VALID,919.842,VALID,0,VALID,96.6992,VALID,0,VALID,18.5905,VALID,340,VALID,0.521326,
2001-12-29, 01:47:01,VALID,919.835,VALID,0,VALID,96.6394,VALID,0,VALID,18.6069,VALID,5,VALID,0.312289,
2001-12-29, 01:48:01,VALID,919.834,VALID,0,VALID,96.5339,VALID,0,VALID,18.6067,VALID,5,VALID,0.00886824,
2001-12-29, 01:49:01,VALID,919.814,VALID,0,VALID,96.4245,VALID,0,VALID,18.5841,VALID,5,VALID,0,
2001-12-29, 01:50:01,VALID,919.806,VALID,0,VALID,96.3762,VALID,0,VALID,18.5613,VALID,5,VALID,0.0010016,
2001-12-29, 01:51:01,VALID,919.791,VALID,0,VALID,96.3914,VALID,0,VALID,18.555,VALID,5,VALID,0,
2001-12-29, 01:52:01,VALID,919.765,VALID,0,VALID,96.3825,VALID,-0.0169808,VALID,18.5456,VALID,5,VALID,0.0977679,
2001-12-29, 01:53:01,VALID,919.767,VALID,0,VALID,96.4258,VALID,0,VALID,18.5426,VALID,5,VALID,0.142475,
2001-12-29, 01:54:01,VALID,919.773,VALID,0,VALID,96.394,VALID,0,VALID,18.5299,VALID,5,VALID,0.0310389,
2001-12-29, 01:55:01,VALID,919.761,VALID,0,VALID,96.3711,VALID,0,VALID,18.5001,VALID,2,VALID,0.0629112,
2001-12-29, 01:56:01,VALID,919.757,VALID,0,VALID,96.5262,VALID,0,VALID,18.5167,VALID,2,VALID,0.0318834,
2001-12-29, 01:57:01,VALID,919.745,VALID,0,VALID,96.4665,VALID,0,VALID,18.4969,VALID,2,VALID,0,
2001-12-29, 01:58:01,VALID,919.745,VALID,0,VALID,96.2859,VALID,0,VALID,18.4646,VALID,2,VALID,0,
2001-12-29, 01:59:01,VALID,919.725,VALID,0,VALID,96.3126,VALID,-0.0169808,VALID,18.4263,VALID,2,VALID,0,
2001-12-29, 02:00:00,VALID,919.706,VALID,0,VALID,96.3482,VALID,0,VALID,18.3873,VALID,2,VALID,0,
2001-12-29, 02:01:00,VALID,919.692,VALID,0,VALID,96.5466,VALID,-0.0169808,VALID,18.3809,VALID,2,VALID,0,
2001-12-29, 02:02:00,VALID,919.678,VALID,0,VALID,96.7742,VALID,0,VALID,18.3742,VALID,2,VALID,0,
2001-12-29, 02:03:00,VALID,919.668,VALID,0,VALID,97.0145,VALID,0.0169808,VALID,18.397,VALID,2,VALID,0,
2001-12-29, 02:04:00,VALID,919.654,VALID,0,VALID,97.073,VALID,0,VALID,18.4295,VALID,2,VALID,0.108941,
2001-12-29, 02:05:00,VALID,919.646,VALID,0,VALID,96.9662,VALID,0.0169808,VALID,18.4425,VALID,50,VALID,0.287861,
2001-12-29, 02:06:00,VALID,919.633,VALID,0,VALID,96.3889,VALID,-0.0169808,VALID,18.4134,VALID,78,VALID,0.330659,
2001-12-29, 02:07:00,VALID,919.627,VALID,0,VALID,96.2681,VALID,0,VALID,18.3426,VALID,130,VALID,0.590402,
2001-12-29, 02:08:00,VALID,919.612,VALID,0,VALID,96.5428,VALID,0.0169808,VALID,18.3101,VALID,122,VALID,0.571957,
2001-12-29, 02:09:00,VALID,919.598,VALID,0,VALID,96.6203,VALID,0,VALID,18.2748,VALID,121,VALID,0.559755,
2001-12-29, 02:10:00,VALID,919.578,VALID,0,VALID,96.4258,VALID,-0.0169808,VALID,18.233,VALID,100,VALID,0.421053,
2001-12-29, 02:11:00,VALID,919.554,VALID,0,VALID,96.0392,VALID,-0.0339617,VALID,18.1204,VALID,65,VALID,0.599662,
2001-12-29, 02:12:00,VALID,919.546,VALID,0,VALID,96.2414,VALID,0,VALID,18.0132,VALID,60,VALID,0.706696,
2001-12-29, 02:13:00,VALID,919.548,VALID,0,VALID,97.4113,VALID,-0.0339617,VALID,18.0392,VALID,68,VALID,0.838742,
2001-12-29, 02:14:00,VALID,919.539,VALID,0,VALID,97.8067,VALID,-0.0169808,VALID,18.0877,VALID,74,VALID,0.830256,
2001-12-29, 02:15:00,VALID,919.532,VALID,0,VALID,97.8856,VALID,-0.0339617,VALID,18.1001,VALID,74,VALID,0.728171,
2001-12-29, 02:16:00,VALID,919.523,VALID,0,VALID,97.7139,VALID,-0.0169808,VALID,18.0709,VALID,73,VALID,0.487542,
2001-12-29, 02:17:00,VALID,919.511,VALID,0,VALID,97.3947,VALID,0,VALID,17.9811,VALID,62,VALID,0.613809,
2001-12-29, 02:18:00,VALID,919.499,VALID,0,VALID,97.3833,VALID,-0.0169808,VALID,17.9069,VALID,61,VALID,0.678843,
2001-12-29, 02:19:00,VALID,919.494,VALID,0,VALID,97.6402,VALID,0,VALID,17.8879,VALID,65,VALID,0.803168,
2001-12-29, 02:20:00,VALID,919.492,VALID,0,VALID,98.0585,VALID,0,VALID,17.9004,VALID,81,VALID,1.19251,
2001-12-29, 02:21:00,VALID,919.492,VALID,0,VALID,98.1958,VALID,0.0169808,VALID,17.9228,VALID,91,VALID,1.06841,
2001-12-29, 02:22:00,VALID,919.494,VALID,0,VALID,98.234,VALID,-0.0679233,VALID,17.8972,VALID,99,VALID,1.07054,
2001-12-29, 02:23:00,VALID,919.489,VALID,0,VALID,98.454,VALID,-0.0339617,VALID,17.9131,VALID,97,VALID,1.01213,
2001-12-29, 02:24:00,VALID,919.483,VALID,0,VALID,98.5125,VALID,-0.0339617,VALID,17.9265,VALID,101,VALID,0.986064,
2001-12-29, 02:25:00,VALID,919.468,VALID,0,VALID,98.5214,VALID,0,VALID,17.9331,VALID,98,VALID,0.944901,
2001-12-29, 02:26:00,VALID,919.451,VALID,0,VALID,98.6498,VALID,-0.0509425,VALID,17.9299,VALID,98,VALID,0.906672,
2001-12-29, 02:27:00,VALID,919.443,VALID,0,VALID,98.6231,VALID,-0.0679233,VALID,17.9366,VALID,101,VALID,0.704241,
2001-12-29, 02:28:00,VALID,919.431,VALID,0,VALID,98.688,VALID,-0.0509425,VALID,17.9138,VALID,101,VALID,0.648438,
2001-12-29, 02:29:00,VALID,919.414,VALID,0,VALID,98.8329,VALID,-0.0679233,VALID,17.9428,VALID,101,VALID,0.706676,
2001-12-29, 02:30:00,VALID,919.404,VALID,0,VALID,98.8482,VALID,-0.0169808,VALID,17.9721,VALID,94,VALID,0.745175,
2001-12-29, 02:31:00,VALID,919.408,VALID,0,VALID,98.7096,VALID,-0.0339617,VALID,17.9428,VALID,89,VALID,0.78125,
2001-12-29, 02:32:00,VALID,919.403,VALID,0,VALID,98.8329,VALID,-0.0339617,VALID,17.9428,VALID,97,VALID,0.642736,
2001-12-29, 02:33:00,VALID,919.398,VALID,0,VALID,98.7579,VALID,-0.0509425,VALID,17.9297,VALID,109,VALID,0.498311,
2001-12-29, 02:34:00,VALID,919.383,VALID,0,VALID,98.6574,VALID,-0.0339617,VALID,17.9138,VALID,118,VALID,0.491319,
2001-12-29, 02:35:00,VALID,919.393,VALID,0,VALID,98.6384,VALID,-0.0339617,VALID,17.8782,VALID,120,VALID,0.53105,
2001-12-29, 02:36:00,VALID,919.37,VALID,0,VALID,98.6651,VALID,-0.0169808,VALID,17.849,VALID,116,VALID,0.48712,
2001-12-29, 02:37:00,VALID,919.355,VALID,0,VALID,98.6269,VALID,0,VALID,17.836,VALID,112,VALID,0.364509,
2001-12-29, 02:38:00,VALID,919.343,VALID,0,VALID,98.426,VALID,-0.0169808,VALID,17.7546,VALID,98,VALID,0.432977,
2001-12-29, 02:39:00,VALID,919.336,VALID,0,VALID,98.4553,VALID,-0.0169808,VALID,17.6967,VALID,83,VALID,0.53484,
2001-12-29, 02:40:00,VALID,919.329,VALID,0,VALID,98.482,VALID,-0.0169808,VALID,17.6642,VALID,82,VALID,0.512541,
2001-12-29, 02:41:00,VALID,919.318,VALID,0,VALID,98.4642,VALID,0,VALID,17.6389,VALID,82,VALID,0.348184,
2001-12-29, 02:42:00,VALID,919.307,VALID,0,VALID,98.3917,VALID,-0.0169808,VALID,17.5936,VALID,82,VALID,0.378795,
2001-12-29, 02:43:00,VALID,919.303,VALID,0,VALID,98.2365,VALID,-0.0169808,VALID,17.5164,VALID,82,VALID,0.214343,
2001-12-29, 02:44:00,VALID,919.296,VALID,0,VALID,98.3815,VALID,-0.0169808,VALID,17.4544,VALID,82,VALID,0.420691,
2001-12-29, 02:45:00,VALID,919.291,VALID,0,VALID,98.5583,VALID,-0.0169808,VALID,17.4869,VALID,81,VALID,0.251608,
2001-12-29, 02:46:00,VALID,919.274,VALID,0,VALID,98.3802,VALID,-0.0339617,VALID,17.435,VALID,81,VALID,0,
2001-12-29, 02:47:00,VALID,919.254,VALID,0,VALID,98.2048,VALID,-0.0339617,VALID,17.358,VALID,50,VALID,0.248522,
2001-12-29, 02:48:00,VALID,919.238,VALID,0,VALID,98.4133,VALID,-0.0509425,VALID,17.3517,VALID,47,VALID,0.254856,
2001-12-29, 02:49:00,VALID,919.22,VALID,0,VALID,98.44,VALID,-0.0339617,VALID,17.345,VALID,47,VALID,0.211806,
2001-12-29, 02:50:00,VALID,919.214,VALID,0,VALID,98.5112,VALID,-0.0169808,VALID,17.3323,VALID,47,VALID,0.361579,
2001-12-29, 02:51:00,VALID,919.205,VALID,0,VALID,98.6791,VALID,-0.0169808,VALID,17.3285,VALID,47,VALID,0.284417,
2001-12-29, 02:52:00,VALID,919.197,VALID,0,VALID,98.7503,VALID,0,VALID,17.3642,VALID,47,VALID,0.233482,
2001-12-29, 02:53:00,VALID,919.189,VALID,0,VALID,98.7668,VALID,-0.0169808,VALID,17.3582,VALID,48,VALID,0.324424,
2001-12-29, 02:54:00,VALID,919.18,VALID,0,VALID,98.9677,VALID,-0.0169808,VALID,17.3842,VALID,70,VALID,0.556799,
2001-12-29, 02:55:00,VALID,919.18,VALID,0,VALID,99.1318,VALID,-0.0339617,VALID,17.455,VALID,78,VALID,0.664268,
2001-12-29, 02:56:00,VALID,919.157,VALID,0,VALID,99.1597,VALID,-0.0339617,VALID,17.5099,VALID,87,VALID,0.815034,
2001-12-29, 02:57:00,VALID,919.145,VALID,0,VALID,99.1521,VALID,-0.0509425,VALID,17.539,VALID,90,VALID,0.868527,
2001-12-29, 02:58:00,VALID,919.128,VALID,0,VALID,99.1852,VALID,-0.0169808,VALID,17.5782,VALID,89,VALID,0.914463,
2001-12-29, 02:59:00,VALID,919.126,VALID,0,VALID,99.2602,VALID,-0.0169808,VALID,17.6262,VALID,89,VALID,0.991951,
2001-12-29, 03:00:00,VALID,919.108,VALID,0,VALID,99.3161,VALID,-0.0169808,VALID,17.7103,VALID,95,VALID,0.925781,
2001-12-29, 03:01:00,VALID,919.101,VALID,0,VALID,99.2691,VALID,-0.0339617,VALID,17.7362,VALID,94,VALID,0.749789,
2001-12-29, 03:02:00,VALID,919.109,VALID,0,VALID,99.2716,VALID,-0.0339617,VALID,17.7657,VALID,101,VALID,0.779772,
2001-12-29, 03:03:00,VALID,919.114,VALID,0,VALID,99.2754,VALID,-0.0679233,VALID,17.7876,VALID,118,VALID,0.58826,
2001-12-29, 03:04:00,VALID,919.115,VALID,0,VALID,99.2195,VALID,-0.0339617,VALID,17.7904,VALID,121,VALID,0.575955,
2001-12-29, 03:05:00,VALID,919.125,VALID,0,VALID,99.1305,VALID,-0.0169808,VALID,17.768,VALID,122,VALID,0.636418,
2001-12-29, 03:06:00,VALID,919.131,VALID,0,VALID,99.1038,VALID,-0.0169808,VALID,17.7555,VALID,127,VALID,0.79603,
2001-12-29, 03:07:00,VALID,919.12,VALID,0,VALID,99.0987,VALID,0,VALID,17.7588,VALID,134,VALID,0.732143,
2001-12-29, 03:08:00,VALID,919.112,VALID,0,VALID,99.1623,VALID,-0.0169808,VALID,17.7945,VALID,136,VALID,0.801398,
2001-12-29, 03:09:00,VALID,919.099,VALID,0,VALID,99.1101,VALID,-0.0509425,VALID,17.7913,VALID,128,VALID,0.330025,
2001-12-29, 03:10:00,VALID,919.078,VALID,0,VALID,99.1254,VALID,-0.0339617,VALID,17.7973,VALID,117,VALID,0.785362,
2001-12-29, 03:11:00,VALID,919.071,VALID,0,VALID,99.0796,VALID,0,VALID,17.7809,VALID,102,VALID,0.667863,
2001-12-29, 03:12:00,VALID,919.037,VALID,0,VALID,99.0427,VALID,-0.0169808,VALID,17.7749,VALID,97,VALID,0.727009,
2001-12-29, 03:13:00,VALID,919.021,VALID,0,VALID,99.0555,VALID,-0.0169808,VALID,17.7775,VALID,104,VALID,0.819511,
2001-12-29, 03:14:00,VALID,918.974,VALID,0,VALID,99.105,VALID,-0.0169808,VALID,17.7908,VALID,95,VALID,0.870975,
2001-12-29, 03:15:00,VALID,918.956,VALID,0,VALID,99.1127,VALID,-0.0169808,VALID,17.8134,VALID,92,VALID,0.93727,
2001-12-29, 03:16:00,VALID,918.944,VALID,0,VALID,99.147,VALID,-0.0169808,VALID,17.8291,VALID,92,VALID,1.33889,
2001-12-29, 03:17:00,VALID,918.919,VALID,0,VALID,99.1966,VALID,-0.0169808,VALID,17.8907,VALID,98,VALID,1.25359,
2001-12-29, 03:18:00,VALID,918.906,VALID,0,VALID,99.161,VALID,0,VALID,17.9161,VALID,105,VALID,1.16258,
2001-12-29, 03:19:00,VALID,918.884,VALID,0,VALID,99.0911,VALID,-0.0339617,VALID,17.9394,VALID,105,VALID,1.14974,
2001-12-29, 03:20:00,VALID,918.865,VALID,0,VALID,98.9893,VALID,0,VALID,17.9553,VALID,107,VALID,1.09115,
2001-12-29, 03:21:00,VALID,918.853,VALID,0,VALID,98.7681,VALID,-0.0339617,VALID,17.9428,VALID,112,VALID,1.0359,
2001-12-29, 03:22:00,VALID,918.83,VALID,0,VALID,98.7121,VALID,-0.0169808,VALID,17.9297,VALID,121,VALID,1.0971,
2001-12-29, 03:23:00,VALID,918.806,VALID,0,VALID,98.632,VALID,0,VALID,17.9265,VALID,125,VALID,1.11863,
2001-12-29, 03:24:00,VALID,918.796,VALID,0,VALID,98.6702,VALID,-0.0169808,VALID,17.9329,VALID,125,VALID,1.24852,
2001-12-29, 03:25:00,VALID,918.785,VALID,0,VALID,98.632,VALID,-0.0169808,VALID,17.9495,VALID,129,VALID,1.11554,
2001-12-29, 03:26:00,VALID,918.772,VALID,0,VALID,98.6282,VALID,-0.0169808,VALID,17.9523,VALID,131,VALID,0.871833,
2001-12-29, 03:27:00,VALID,918.767,VALID,0,VALID,98.6002,VALID,-0.0169808,VALID,17.962,VALID,124,VALID,0.852455,
2001-12-29, 03:28:00,VALID,918.768,VALID,0,VALID,98.5951,VALID,-0.0169808,VALID,17.9721,VALID,124,VALID,0.794071,
2001-12-29, 03:29:00,VALID,918.754,VALID,0,VALID,98.6485,VALID,-0.0169808,VALID,17.9617,VALID,115,VALID,0.945549,
2001-12-29, 03:30:00,VALID,918.763,VALID,0,VALID,98.6447,VALID,0,VALID,17.9846,VALID,128,VALID,0.506434,
2001-12-29, 03:31:00,VALID,918.769,VALID,0,VALID,98.5633,VALID,-0.0169808,VALID,17.9747,VALID,123,VALID,0.377534,
2001-12-29, 03:32:00,VALID,918.772,VALID,0,VALID,98.5506,VALID,0,VALID,17.9583,VALID,112,VALID,0.888091,
2001-12-29, 03:33:00,VALID,918.762,VALID,0,VALID,98.5137,VALID,-0.0339617,VALID,17.9525,VALID,115,VALID,0.705659,